This is the latest recevied weather packets stored in our database for station/object KD0KHX-10. If no packets are shown the sender has not sent any weather packets the latest 10 day(s).
| Time | Temp. | Humidity | Pressure | Rain* | Wind** | Luminosity | Snow |
|---|---|---|---|---|---|---|---|
| 1777513037 | 9.44° C | 78% | 1013 hPa | 0 mm | - | - | - |
| 1777512603 | 9.44° C | 77% | 1013.1 hPa | 0 mm | - | - | - |
| 1777512303 | 10° C | 76% | 1013.2 hPa | 0 mm | - | - | - |
| 1777512003 | 10° C | 76% | 1013.2 hPa | 0 mm | - | - | - |
| 1777511703 | 10° C | 75% | 1013.1 hPa | 0 mm | - | - | - |
| 1777511403 | 10.56° C | 74% | 1013.2 hPa | 0 mm | - | - | - |
| 1777511104 | 10.56° C | 73% | 1013.1 hPa | 0 mm | - | - | - |
| 1777510803 | 11.11° C | 72% | 1013 hPa | 0 mm | - | - | - |
| 1777510772 | 11.11° C | 72% | 1013 hPa | 0 mm | - | - | - |
| 1777510338 | 11.11° C | 70% | 1012.9 hPa | 0 mm | - | - | - |
| 1777509903 | 11.67° C | 68% | 1012.7 hPa | 0 mm | - | - | - |
| 1777509603 | 11.67° C | 67% | 1012.7 hPa | 0 mm | - | - | - |
| 1777509437 | 12.22° C | 66% | 1012.6 hPa | 0 mm | - | - | - |
| 1777509003 | 12.22° C | 61% | 1012.3 hPa | 0 mm | - | - | - |
| 1777508703 | 12.22° C | 58% | 1012.2 hPa | 0 mm | - | - | - |
| 1777508403 | 12.22° C | 55% | 1012.2 hPa | 0 mm | - | - | - |
| 1777508103 | 12.22° C | 54% | 1012.1 hPa | 0 mm | - | - | - |
| 1777508073 | 12.22° C | 54% | 1012.1 hPa | 0 mm | - | - | - |
| 1777507637 | 12.78° C | 55% | 1011.9 hPa | 0 mm | - | - | - |
| 1777507203 | 12.78° C | 54% | 1011.8 hPa | 0 mm | - | - | - |
| 1777507037 | 12.78° C | 54% | 1011.8 hPa | 0 mm | - | - | - |
| 1777506603 | 12.78° C | 54% | 1011.8 hPa | 0 mm | - | - | - |
| 1777506437 | 12.78° C | 54% | 1011.8 hPa | 0 mm | - | - | - |
| 1777506003 | 13.33° C | 54% | 1011.7 hPa | 0 mm | - | - | - |
| 1777505703 | 13.33° C | 55% | 1011.8 hPa | 0 mm | - | - | - |
* Rain latest hour (hover to see other rain measurements)
** Current wind speed in m/s (hover to see current wind gust speed)